Total_Precipitation_Accumulation
0.01 0.00 0.04 0.06 0.06 0.07 0.06 0.05 0.05 0.07 0.09 0.09 0.09 0.11 0.13 0.13 0.12 0.12 0.11 0.12 0.12 0.12 0.13 0.15 0.19 0.21 0.22 0.22 0.25 0.30 0.34 0.41 0.50 0.57 0.71 0.93 1.18 1.26 1.33 1.25 1.02 0.93 1.00 1.14
0.00 0.00 0.00 0.01 0.02 0.03 0.05 0.07 0.06 0.05 0.05 0.06 0.07 0.08 0.09 0.10 0.12 0.11 0.11 0.10 0.09 0.09 0.07 0.07 0.10 0.13 0.14 0.15 0.16 0.22 0.29 0.39 0.47 0.56 0.73 0.89 1.03 1.01 1.15 1.27 1.20 1.07 1.05 1.16
0.00 0.00 0.00 0.00 0.01 0.03 0.06 0.09 0.11 0.11 0.07 0.05 0.06 0.08 0.07 0.09 0.11 0.11 0.12 0.11 0.10 0.08 0.06 0.06 0.06 0.08 0.09 0.10 0.11 0.15 0.20 0.31 0.44 0.59 0.82 1.03 1.22 1.28 1.32 1.23 1.28 1.25 1.15 1.16
0.00 0.00 0.00 0.01 0.02 0.03 0.06 0.05 0.06 0.09 0.14 0.14 0.15 0.18 0.13 0.14 0.18 0.18 0.18 0.15 0.13 0.12 0.08 0.06 0.06 0.07 0.07 0.07 0.08 0.11 0.19 0.33 0.53 0.74 0.99 1.24 1.44 1.46 1.34 1.37 1.38 1.24 1.13 1.08
0.00 0.00 0.00 0.00 0.01 0.01 0.02 0.02 0.03 0.07 0.12 0.11 0.10 0.16 0.15 0.21 0.30 0.32 0.30 0.25 0.19 0.16 0.13 0.11 0.10 0.12 0.12 0.13 0.15 0.21 0.40 0.64 0.87 1.08 1.32 1.60 1.61 1.50 1.40 1.39 1.35 1.27 1.22 1.18
0.00 0.00 0.00 0.00 0.00 0.00 0.01 0.02 0.05 0.08 0.11 0.07 0.06 0.13 0.23 0.28 0.33 0.36 0.36 0.30 0.22 0.18 0.21 0.26 0.30 0.36 0.40 0.42 0.55 0.75 1.00 1.17 1.24 1.35 1.46 1.58 1.58 1.59 1.53 1.34 1.25 1.22 1.23 1.26
0.00 0.00 0.00 0.00 0.00 0.00 0.01 0.04 0.10 0.12 0.14 0.12 0.12 0.27 0.38 0.34 0.29 0.29 0.29 0.25 0.20 0.23 0.32 0.44 0.59 0.72 0.83 0.93 1.04 1.18 1.35 1.47 1.40 1.35 1.36 1.41 1.42 1.40 1.39 1.33 1.20 1.11 1.11 1.13
0.00 0.00 0.00 0.00 0.01 0.01 0.02 0.07 0.18 0.22 0.21 0.23 0.27 0.47 0.52 0.41 0.31 0.22 0.16 0.16 0.24 0.37 0.51 0.62 0.71 0.82 0.98 1.09 1.14 1.14 1.23 1.31 1.26 1.22 1.19 1.16 1.16 1.14 1.07 0.98 0.96 0.99 1.02 1.02
0.00 0.00 0.00 0.00 0.01 0.02 0.04 0.06 0.14 0.27 0.23 0.23 0.35 0.61 0.57 0.37 0.31 0.25 0.22 0.25 0.38 0.58 0.79 0.93 1.03 1.16 1.19 1.20 1.24 1.16 1.12 1.15 1.14 1.06 0.97 0.96 0.94 0.90 0.86 0.82 0.81 0.78 0.77 0.72
0.00 0.01 0.00 0.00 0.01 0.03 0.09 0.16 0.24 0.42 0.46 0.45 0.54 0.65 0.58 0.46 0.43 0.45 0.52 0.61 0.67 0.78 1.03 1.32 1.56 1.73 1.55 1.26 1.14 1.08 0.98 0.96 1.03 1.01 0.91 0.87 0.85 0.80 0.77 0.75 0.73 0.68 0.60 0.54
0.00 0.02 0.00 0.00 0.03 0.08 0.15 0.26 0.34 0.46 0.56 0.70 0.87 0.97 0.83 0.86 0.88 0.95 1.06 1.10 1.10 1.20 1.18 1.34 1.53 1.70 1.58 1.26 1.02 1.02 1.01 0.94 0.90 0.89 0.85 0.81 0.75 0.66 0.64 0.63 0.63 0.61 0.55 0.52
0.00 0.04 0.02 0.02 0.08 0.16 0.27 0.38 0.52 0.69 0.63 0.69 0.89 1.06 0.95 0.94 0.96 1.05 1.23 1.30 1.29 1.20 1.10 1.08 1.13 1.19 1.20 1.05 0.86 0.81 0.92 0.93 0.88 0.86 0.84 0.79 0.69 0.61 0.59 0.56 0.50 0.44 0.39 0.36
0.02 0.09 0.10 0.09 0.23 0.35 0.53 0.60 0.48 0.46 0.51 0.61 0.83 0.83 0.62 0.57 0.73 0.89 1.04 1.13 1.05 1.00 1.06 1.03 0.95 0.88 0.90 0.87 0.79 0.75 0.86 0.97 1.01 0.97 0.82 0.69 0.63 0.59 0.58 0.48 0.43 0.41 0.34 0.31
0.01 0.08 0.13 0.20 0.29 0.41 0.62 0.71 0.55 0.44 0.49 0.50 0.56 0.50 0.36 0.42 0.58 0.65 0.69 0.69 0.70 0.74 0.76 0.70 0.65 0.60 0.59 0.63 0.67 0.72 0.82 0.89 1.00 1.09 0.98 0.82 0.71 0.63 0.57 0.48 0.46 0.43 0.40 0.40
0.00 0.01 0.03 0.06 0.08 0.17 0.36 0.47 0.38 0.27 0.24 0.31 0.32 0.33 0.37 0.45 0.55 0.53 0.48 0.42 0.40 0.41 0.38 0.37 0.36 0.34 0.33 0.33 0.34 0.43 0.55 0.70 0.88 1.07 1.05 0.89 0.82 0.75 0.62 0.56 0.56 0.54 0.57 0.53
0.00 0.00 0.00 0.02 0.04 0.07 0.17 0.20 0.16 0.09 0.12 0.23 0.29 0.35 0.40 0.46 0.53 0.50 0.42 0.34 0.27 0.26 0.25 0.24 0.22 0.20 0.16 0.14 0.16 0.17 0.25 0.42 0.59 0.74 0.81 0.76 0.68 0.59 0.56 0.55 0.53 0.50 0.48 0.44
0.00 0.00 0.01 0.01 0.02 0.04 0.11 0.11 0.12 0.15 0.15 0.16 0.25 0.37 0.46 0.58 0.76 0.67 0.49 0.41 0.28 0.20 0.19 0.18 0.19 0.18 0.17 0.16 0.14 0.14 0.17 0.24 0.35 0.47 0.56 0.54 0.49 0.43 0.39 0.43 0.44 0.40 0.36 0.38
0.00 0.02 0.06 0.05 0.08 0.19 0.24 0.19 0.26 0.34 0.26 0.21 0.28 0.36 0.50 0.83 1.03 0.65 0.42 0.38 0.31 0.21 0.18 0.16 0.16 0.15 0.13 0.12 0.11 0.11 0.14 0.17 0.18 0.22 0.26 0.27 0.27 0.27 0.28 0.31 0.31 0.31 0.29 0.28
0.00 0.03 0.08 0.10 0.13 0.39 0.36 0.18 0.31 0.36 0.30 0.24 0.31 0.37 0.39 0.45 0.41 0.24 0.14 0.16 0.18 0.12 0.09 0.08 0.07 0.06 0.05 0.04 0.04 0.04 0.05 0.05 0.05 0.06 0.08 0.10 0.12 0.14 0.17 0.17 0.21 0.29 0.32 0.32
0.00 0.02 0.06 0.07 0.08 0.23 0.27 0.10 0.17 0.25 0.30 0.12 0.14 0.16 0.11 0.07 0.08 0.10 0.09 0.06 0.05 0.03 0.02 0.02 0.01 0.01 0.01 0.00 0.00 0.00 0.00 0.00 0.00 0.00 0.00 0.01 0.01 0.02 0.05 0.08 0.10 0.16 0.23 0.29
0.00 0.01 0.02 0.02 0.04 0.07 0.05 0.05 0.10 0.24 0.27 0.07 0.04 0.03 0.01 0.00 0.01 0.05 0.09 0.05 0.03 0.01 0.00 0.00 0.00 0.00 0.00 0.00 0.00 0.00 0.00 0.00 0.00 0.00 0.00 0.00 0.00 0.00 0.01 0.02 0.02 0.05 0.09 0.12
0.00 0.01 0.01 0.01 0.02 0.03 0.01 0.04 0.10 0.10 0.05 0.02 0.01 0.01 0.00 0.00 0.00 0.02 0.05 0.03 0.02 0.00 0.00 0.00 0.00 0.00 0.00 0.00 0.00 0.00 0.00 0.00 0.00 0.00 0.00 0.00 0.00 0.00 0.00 0.01 0.01 0.01 0.02 0.04
0.00 0.01 0.01 0.01 0.02 0.01 0.01 0.02 0.03 0.02 0.01 0.00 0.00 0.00 0.00 0.00 0.00 0.00 0.01 0.02 0.01 0.00 0.00 0.00 0.00 0.00 0.00 0.00 0.00 0.00 0.00 0.00 0.00 0.00 0.00 0.00 0.00 0.01 0.00 0.01 0.01 0.01 0.02 0.04
0.00 0.00 0.01 0.01 0.01 0.00 0.00 0.01 0.00 0.01 0.01 0.00 0.00 0.00 0.00 0.00 0.00 0.00 0.00 0.01 0.01 0.00 0.00 0.00 0.00 0.00 0.00 0.00 0.00 0.00 0.00 0.00 0.00 0.00 0.00 0.00 0.01 0.01 0.01 0.01 0.01 0.02 0.02 0.04
0.00 0.01 0.01 0.01 0.00 0.00 0.00 0.00 0.00 0.00 0.00 0.00 0.00 0.00 0.00 0.00 0.00 0.00 0.00 0.01 0.00 0.00 0.00 0.00 0.00 0.00 0.00 0.00 0.00 0.00 0.00 0.00 0.00 0.00 0.00 0.00 0.01 0.01 0.01 0.01 0.01 0.02 0.02 0.04
0.00 0.00 0.01 0.00 0.00 0.00 0.00 0.00 0.00 0.01 0.00 0.00 0.00 0.00 0.00 0.00 0.00 0.00 0.00 0.00 0.00 0.00 0.00 0.00 0.00 0.00 0.00 0.00 0.00 0.00 0.00 0.00 0.00 0.00 0.00 0.00 0.01 0.01 0.01 0.02 0.01 0.01 0.01 0.02